This is the latest recevied weather packets stored in our database for station/object K1LVA. If no packets are shown the sender has not sent any weather packets the latest 10 day(s).
| Time | Temp. | Humidity | Pressure | Rain* | Wind** | Luminosity | Snow |
|---|---|---|---|---|---|---|---|
| 1778091517 | 27.78° C | 63% | 1014.8 hPa | 0 mm | - | 771 W/m² | - |
| 1778091215 | 27.22° C | 65% | 1014.7 hPa | 0 mm | - | 803 W/m² | - |
| 1778090912 | 26.67° C | 64% | 1014.8 hPa | 0 mm | - | 714 W/m² | - |
| 1778090607 | 26.67° C | 66% | 1015 hPa | 0 mm | - | 575 W/m² | - |
| 1778090304 | 26.11° C | 66% | 1015.3 hPa | 0 mm | - | 707 W/m² | - |
| 1778090001 | 25.56° C | 66% | 1015.3 hPa | 0 mm | - | 432 W/m² | - |
| 1778089692 | 25.56° C | 68% | 1015.5 hPa | 0 mm | - | 397 W/m² | - |
| 1778089389 | 25.56° C | 67% | 1015.4 hPa | 0 mm | - | 355 W/m² | - |
| 1778089087 | 25.56° C | 68% | 1015.6 hPa | 0 mm | - | 315 W/m² | - |
| 1778088783 | 25.56° C | 69% | 1015.9 hPa | 0 mm | - | 230 W/m² | - |
| 1778088480 | 25.56° C | 67% | 1015.9 hPa | 0 mm | - | 248 W/m² | - |
| 1778088177 | 25.56° C | 67% | 1015.9 hPa | 0 mm | - | 279 W/m² | - |
| 1778087875 | 25.56° C | 68% | 1016.4 hPa | 0 mm | - | 248 W/m² | - |
| 1778087571 | 26.11° C | 68% | 1016.3 hPa | 0 mm | - | 324 W/m² | - |
| 1778087270 | 26.11° C | 66% | 1016.5 hPa | 0 mm | - | 384 W/m² | - |
| 1778086965 | 25.56° C | 70% | 1016.3 hPa | 0 mm | - | 424 W/m² | - |
| 1778086664 | 25° C | 71% | 1016.4 hPa | 0 mm | - | 440 W/m² | - |
| 1778086361 | 24.44° C | 70% | 1016.5 hPa | 0 mm | - | 385 W/m² | - |
| 1778086058 | 24.44° C | 71% | 1016.6 hPa | 0 mm | - | 265 W/m² | - |
| 1778085755 | 24.44° C | 71% | 1016.5 hPa | 0 mm | - | 257 W/m² | - |
| 1778085452 | 25° C | 70% | 1016.6 hPa | 0 mm | - | 403 W/m² | - |
| 1778085146 | 25° C | 72% | 1016.8 hPa | 0 mm | - | 600 W/m² | - |
| 1778084843 | 24.44° C | 73% | 1016.5 hPa | 0 mm | - | 469 W/m² | - |
| 1778084541 | 24.44° C | 74% | 1016.9 hPa | 0 mm | - | 241 W/m² | - |
| 1778084238 | 24.44° C | 73% | 1016.7 hPa | 0 mm | - | 315 W/m² | - |
* Rain latest hour (hover to see other rain measurements)
** Current wind speed in m/s (hover to see current wind gust speed)